TimeCDT,TemperatureF,Dew PointF,Humidity,Sea Level PressureIn,VisibilityMPH,Wind Direction,Wind SpeedMPH,Gust SpeedMPH,PrecipitationIn,Events,Conditions,WindDirDegrees,DateUTC
12:53 AM,43.0,34.0,71,30.32,10.0,North,4.6,-,N/A,,Scattered Clouds,350,2012-10-06 05:53:00
1:53 AM,44.1,35.1,71,30.34,10.0,NNW,5.8,-,N/A,,Mostly Cloudy,330,2012-10-06 06:53:00
2:53 AM,45.0,34.0,65,30.32,10.0,North,9.2,-,N/A,,Overcast,10,2012-10-06 07:53:00
3:53 AM,45.0,35.1,68,30.30,10.0,North,8.1,-,N/A,,Overcast,10,2012-10-06 08:53:00
4:53 AM,46.0,35.1,66,30.29,10.0,North,8.1,-,N/A,,Mostly Cloudy,360,2012-10-06 09:53:00
5:53 AM,46.0,34.0,63,30.30,10.0,North,6.9,-,N/A,,Overcast,360,2012-10-06 10:53:00
6:53 AM,46.0,35.1,66,30.31,10.0,North,4.6,-,N/A,,Overcast,360,2012-10-06 11:53:00
7:53 AM,46.0,35.1,66,30.31,10.0,North,5.8,-,N/A,,Overcast,360,2012-10-06 12:53:00
8:53 AM,46.4,35.6,66,30.33,10.0,NNE,9.2,-,N/A,,Overcast,20,2012-10-06 13:53:00
9:53 AM,46.9,34.0,61,30.36,10.0,NE,9.2,-,N/A,,Overcast,40,2012-10-06 14:53:00
10:53 AM,48.0,30.0,50,30.39,10.0,NE,9.2,-,N/A,,Overcast,40,2012-10-06 15:53:00
11:53 AM,46.9,28.0,48,30.39,10.0,NNE,17.3,23.0,0.00,Rain,Light Rain,30,2012-10-06 16:53:00
12:53 PM,46.0,30.9,56,30.39,10.0,NE,16.1,-,0.00,,Overcast,40,2012-10-06 17:53:00
1:53 PM,44.1,34.0,68,30.38,10.0,NNE,16.1,-,N/A,,Overcast,30,2012-10-06 18:53:00
2:53 PM,45.0,33.1,63,30.35,10.0,NE,11.5,-,N/A,,Overcast,50,2012-10-06 19:53:00
3:53 PM,45.0,32.0,60,30.35,10.0,NE,4.6,-,N/A,,Overcast,40,2012-10-06 20:53:00
4:53 PM,46.0,30.9,56,30.34,10.0,NNW,9.2,-,N/A,,Overcast,340,2012-10-06 21:53:00
5:53 PM,46.0,30.9,56,30.34,10.0,North,12.7,-,N/A,,Overcast,350,2012-10-06 22:53:00
6:53 PM,45.0,32.0,60,30.35,10.0,NNW,10.4,-,N/A,,Overcast,340,2012-10-06 23:53:00
7:53 PM,44.1,33.1,65,30.35,10.0,North,9.2,-,N/A,,Mostly Cloudy,350,2012-10-07 00:53:00
8:53 PM,43.0,34.0,71,30.36,10.0,NNW,8.1,-,N/A,,Mostly Cloudy,330,2012-10-07 01:53:00
9:53 PM,41.0,33.1,73,30.37,10.0,NW,5.8,-,N/A,,Mostly Cloudy,320,2012-10-07 02:53:00
10:53 PM,43.0,34.0,71,30.37,10.0,NW,8.1,-,N/A,,Mostly Cloudy,320,2012-10-07 03:53:00
11:53 PM,43.0,33.1,68,30.36,10.0,NNW,10.4,-,N/A,,Mostly Cloudy,330,2012-10-07 04:53:00